Andrews, NC

5:57 PM EDT on September 21, 2017 (GMT -0400)
Andrews

Weather History for KRHP - May, 2013

Change the Weather History Date:

Monday, May 27, 2013

  Actual Average (KMMI) Record (KMMI)
Temperature  
Mean Temperature 64 °F -  
Max Temperature 81 °F 79 °F 84 °F (2014)
Min Temperature 46 °F 56 °F 60 °F (2016)
Degree Days  
Heating Degree Days 2    
Growing Degree Days 14 (Base 50)    
Moisture  
Dew Point 52 °F    
Average Humidity 68    
Maximum Humidity 97    
Minimum Humidity 39    
Precipitation  
Precipitation 0.00 in - - ()
Sea Level Pressure  
Sea Level Pressure 30.22 in    
Wind  
Wind Speed 1 mph (SW)    
Max Wind Speed 10 mph    
Max Gust Speed 17 mph    
Visibility 10 miles    
Events      
Averages and records for this station are not official NWS values.
T = Trace of Precipitation, MM = Missing Value Source: NWS Daily Summary

Daily Weather History Graph

Daily Weather History Graph

Search for Another Location

Airport or City:

Trip Planner

Search our weather history database for the weather conditions in past years. The results will help you decide how hot, cold, wet, or windy it might be!

Date:

Astronomy

May. 27, 2013 Rise Set
Actual Time 6:24 AM EDT 8:41 PM EDT
Civil Twilight 5:55 AM EDT 9:10 PM EDT
Nautical Twilight 5:19 AM EDT 9:46 PM EDT
Astronomical Twilight 4:40 AM EDT 10:25 PM EDT
Moon 11:22 PM EDT (5/27) 8:58 AM EDT (5/27)
Length of Visible Light 15h 15m
Length of Day
14h 17m
Waning Gibbous, 91% of the Moon is Illuminated
May 27
Waning Gibbous
May 31
Last Quarter
Jun 8
New
Jun 16
First Quarter
Jun 23
Full

Hourly Weather History & Observations

Time (EDT) Temp. Heat Index Dew Point Humidity Pressure Visibility Wind Dir Wind Speed Gust Speed Precip Events Conditions
12:15 AM 52.5 °F - 46.9 °F 81% 30.25 in 10.0 mi Calm Calm - N/A   Unknown
12:35 AM 50.7 °F - 47.7 °F 89% 30.26 in 10.0 mi Calm Calm - N/A   Unknown
12:55 AM 50.2 °F - 46.9 °F 89% 30.26 in 10.0 mi Calm Calm - N/A   Unknown
1:15 AM 50.5 °F - 46.6 °F 86% 30.25 in 10.0 mi Calm Calm - N/A   Unknown
1:35 AM 50.0 °F - 46.8 °F 89% 30.25 in 10.0 mi Calm Calm - N/A   Unknown
1:55 AM 49.5 °F - 47.7 °F 94% 30.25 in 10.0 mi Calm Calm - N/A   Unknown
2:15 AM 50.2 °F - 47.8 °F 92% 30.24 in 10.0 mi Calm Calm - N/A   Unknown
2:35 AM 48.7 °F - 46.8 °F 93% 30.24 in 10.0 mi Calm Calm - N/A   Unknown
2:55 AM 49.3 °F - 45.7 °F 87% 30.24 in 10.0 mi Calm Calm - N/A   Unknown
3:15 AM 48.6 °F - 46.0 °F 91% 30.24 in 10.0 mi Calm Calm - N/A   Unknown
3:35 AM 48.2 °F - 46.2 °F 93% 30.23 in 10.0 mi Calm Calm - N/A   Unknown
3:55 AM 48.0 °F - 45.7 °F 92% 30.24 in 10.0 mi Calm Calm - N/A   Unknown
4:15 AM 47.7 °F - 46.4 °F 95% 30.24 in 7.0 mi Calm Calm - N/A   Unknown
4:35 AM 48.2 °F - 46.6 °F 94% 30.24 in 10.0 mi Calm Calm - N/A   Unknown
4:55 AM 47.5 °F - 45.5 °F 93% 30.24 in 10.0 mi Calm Calm - N/A   Unknown
5:15 AM 47.3 °F - 45.9 °F 95% 30.25 in 10.0 mi Calm Calm - N/A   Unknown
5:35 AM 47.3 °F - 45.7 °F 94% 30.25 in 10.0 mi Calm Calm - N/A   Unknown
5:55 AM 46.6 °F - 45.7 °F 97% 30.25 in 10.0 mi Calm Calm - N/A   Unknown
6:15 AM 47.1 °F - 45.5 °F 94% 30.25 in 10.0 mi Calm Calm - N/A   Unknown
6:35 AM 46.8 °F - 46.0 °F 97% 30.25 in 10.0 mi Calm Calm - N/A   Unknown
6:55 AM 47.7 °F - 46.4 °F 95% 30.26 in 10.0 mi Calm Calm - N/A   Unknown
7:15 AM 47.8 °F - 46.6 °F 95% 30.27 in 10.0 mi Calm Calm - N/A   Unknown
7:35 AM 49.1 °F - 47.5 °F 94% 30.28 in 10.0 mi Calm Calm - N/A   Unknown
7:55 AM 50.0 °F - 48.0 °F 93% 30.28 in 10.0 mi Calm Calm - N/A   Unknown
8:15 AM 52.5 °F - 49.1 °F 88% 30.28 in 10.0 mi Calm Calm - N/A   Unknown
8:35 AM 54.1 °F - 50.2 °F 86% 30.28 in 10.0 mi Calm Calm - N/A   Unknown
8:55 AM 56.5 °F - 50.4 °F 80% 30.28 in 10.0 mi Calm Calm - N/A   Unknown
9:15 AM 59.9 °F - 51.1 °F 73% 30.28 in 10.0 mi Calm Calm - N/A   Unknown
9:35 AM 62.8 °F - 52.5 °F 69% 30.28 in 10.0 mi Calm Calm - N/A   Unknown
9:55 AM 64.6 °F - 52.7 °F 65% 30.27 in 10.0 mi Calm Calm - N/A   Unknown
10:15 AM 66.4 °F - 52.7 °F 61% 30.27 in 10.0 mi Calm Calm - N/A   Unknown
10:35 AM 68.9 °F - 53.4 °F 58% 30.26 in 7.0 mi Calm Calm - N/A   Unknown
10:55 AM 70.5 °F - 53.2 °F 54% 30.25 in 10.0 mi Calm Calm - N/A   Unknown
11:15 AM 72.7 °F - 53.8 °F 51% 30.24 in 10.0 mi WSW 5.8 mph - N/A   Unknown
11:35 AM 73.8 °F - 52.7 °F 48% 30.24 in 10.0 mi West 4.6 mph - N/A   Unknown
11:55 AM 75.2 °F - 52.7 °F 45% 30.23 in 10.0 mi West 4.6 mph - N/A   Unknown
12:15 PM 77.5 °F - 53.1 °F 42% 30.23 in 10.0 mi WSW 10.4 mph - N/A   Unknown
12:35 PM 77.7 °F - 54.0 °F 44% 30.23 in 10.0 mi WSW 6.9 mph - N/A   Unknown
12:55 PM 78.6 °F - 54.7 °F 43% 30.23 in 10.0 mi SSW 6.9 mph 17.3 mph N/A   Unknown
1:15 PM 78.6 °F - 54.3 °F 43% 30.22 in 10.0 mi NW 6.9 mph - N/A   Unknown
1:35 PM 79.5 °F - 52.5 °F 39% 30.21 in 10.0 mi West 5.8 mph - N/A   Unknown
1:55 PM 79.9 °F - 55.8 °F 43% 30.21 in 10.0 mi WSW 9.2 mph - N/A   Unknown
2:15 PM 78.6 °F - 55.6 °F 45% 30.20 in 10.0 mi South 4.6 mph - N/A   Unknown
2:35 PM 78.1 °F - 55.0 °F 45% 30.20 in 10.0 mi Calm Calm - N/A   Unknown
2:55 PM 80.1 °F 80.1 °F 55.0 °F 42% 30.19 in 10.0 mi South 3.5 mph - N/A   Unknown
3:15 PM 81.3 °F 81.0 °F 55.4 °F 41% 30.18 in 10.0 mi SSE 8.1 mph - N/A   Unknown
3:35 PM 80.6 °F 80.5 °F 55.2 °F 42% 30.18 in 10.0 mi SW 8.1 mph - N/A   Unknown
3:55 PM 81.5 °F 80.9 °F 54.0 °F 39% 30.17 in 10.0 mi WSW 8.1 mph - N/A   Unknown
4:15 PM 80.8 °F 80.5 °F 54.3 °F 40% 30.16 in 10.0 mi SSW 5.8 mph - N/A   Unknown
4:35 PM 81.9 °F 81.2 °F 54.9 °F 39% 30.16 in 10.0 mi SSW 5.8 mph - N/A   Unknown
4:55 PM 81.3 °F 80.9 °F 55.0 °F 40% 30.16 in 10.0 mi SW 5.8 mph - N/A   Unknown
5:15 PM 80.6 °F 80.4 °F 54.3 °F 40% 30.16 in 10.0 mi SW 6.9 mph - N/A   Unknown
5:35 PM 79.9 °F - 54.9 °F 42% 30.17 in 10.0 mi WSW 6.9 mph - N/A   Unknown
5:55 PM 78.4 °F - 55.4 °F 45% 30.17 in 10.0 mi SSW 5.8 mph - N/A   Unknown
6:15 PM 77.9 °F - 55.9 °F 47% 30.17 in 10.0 mi SSW 4.6 mph - N/A   Unknown
6:35 PM 77.5 °F - 56.3 °F 48% 30.16 in 10.0 mi SW 5.8 mph - N/A   Unknown
6:55 PM 77.2 °F - 56.1 °F 48% 30.16 in 10.0 mi SW 6.9 mph - N/A   Unknown
7:15 PM 76.3 °F - 55.8 °F 49% 30.16 in 10.0 mi SSW 3.5 mph - N/A   Unknown
7:35 PM 76.1 °F - 55.9 °F 50% 30.16 in 10.0 mi Calm Calm - N/A   Unknown
7:55 PM 76.6 °F - 55.6 °F 48% 30.16 in 10.0 mi Calm Calm - N/A   Unknown
8:15 PM 75.0 °F - 55.0 °F 50% 30.16 in 10.0 mi SSW 3.5 mph - N/A   Unknown
8:35 PM 73.6 °F - 55.2 °F 53% 30.16 in 10.0 mi Calm Calm - N/A   Unknown
8:55 PM 69.4 °F - 56.7 °F 64% 30.17 in 10.0 mi NW 4.6 mph - N/A   Unknown
9:15 PM 66.6 °F - 57.0 °F 71% 30.17 in 10.0 mi WNW 3.5 mph - N/A   Unknown
9:35 PM 65.1 °F - 56.5 °F 74% 30.17 in 10.0 mi Calm Calm - N/A   Unknown
9:55 PM 63.7 °F - 56.7 °F 78% 30.18 in 10.0 mi Calm Calm - N/A   Unknown
10:15 PM 63.5 °F - 56.7 °F 78% 30.19 in 10.0 mi Calm Calm - N/A   Unknown
10:35 PM 62.8 °F - 56.5 °F 80% 30.20 in 10.0 mi Calm Calm - N/A   Unknown
10:55 PM 60.8 °F - 56.3 °F 85% 30.20 in 10.0 mi Calm Calm - N/A   Unknown
11:15 PM 60.8 °F - 56.5 °F 86% 30.20 in 10.0 mi Calm Calm - N/A   Unknown
11:35 PM 59.4 °F - 55.8 °F 88% 30.20 in 10.0 mi Calm Calm - N/A   Unknown
11:55 PM 59.0 °F - 55.9 °F 90% 30.20 in 10.0 mi Calm Calm - N/A   Unknown